Tracking 29782 objects as of 13-Oct-2024
HD Live streaming from Space Station
objects crossing your sky now

STARLINK-31485

Track STARLINK-31485 now!
10-day predictions
STARLINK-31485 is classified as:


NORAD ID: 59308
Int'l Code: 2024-056N
Perigee: 449.9 km
Apogee: 452.5 km
Inclination: 43.0 °
Period: 93.5 minutes
Semi major axis: 6822 km
RCS: Unknown
Launch date: March 24, 2024
Source: United States (US)
Launch site: AIR FORCE EASTERN TEST RANGE (AFETR)
Your satellite tracking list
Your tracking list is empty




NASA's NSSDC Master Catalog

Two Line Element Set (TLE):
1 59308U 24056N   24286.35727142  .00005822  00000-0  14662-3 0  9994
2 59308  43.0013 271.6395 0001908 213.9640 146.1095 15.40682607 32396
Source of the keplerian elements: AFSPC